[[{"header":{"parameterUnit":"m.s-1","parameterCategory":1,"la1":30.2991,"la2":30.254,"lo1":-89.0895,"lo2":-89.0444,"dy":0.0017,"dx":0.0017,"nx":28,"ny":28,"refTime":"2025-08-27T21:00:00:Z","depth":0,"parameterNumber":2,"parameterNumberName":"U-component_of_WINDS"},"data":[0,0,0,0,0,0,0,0,0,0,0,0,0,0,0,0,0,0,0,0,0,0,0,0,0,0,0,0,0,0,0,0,0,0,0,0,0,0,0,0,0,0,0,0,0,0,0,0,0,0,0,0,0,0,0,0,0,0,-0.2549,-0.2548,0,-0.248,-0.2479,-0.2478,-0.2413,-0.2412,-0.2411,-0.241,-0.234,-0.2339,-0.2338,0,0,0,0,0,0,0,0,0,0,0,0,0,-0.2624,-0.2623,-0.2549,-0.2548,-0.2547,-0.248,-0.2479,-0.2478,-0.2413,-0.2412,-0.2411,-0.241,-0.234,-0.2339,-0.2338,0,0,0,0,0,0,0,0,0,0,0,0,0,-0.2577,-0.2623,-0.2549,-0.2506,-0.2502,-0.248,-0.2479,-0.2478,-0.2413,-0.2412,-0.2411,-0.2409,-0.2341,-0.2339,-0.2338,-0.2353,0,0,-0.2333,-0.2332,0,0,0,0,0,0,0,0,-0.258,-0.2574,-0.2513,-0.2509,-0.2504,-0.2454,-0.248,-0.2436,-0.2413,-0.2447,-0.241,-0.2409,-0.2379,-0.2374,-0.2364,-0.2349,-0.2346,-0.2332,-0.2331,-0.2331,-0.233,0,0,0,0,0,0,0,-0.2583,-0.2577,-0.2521,-0.2513,-0.2507,-0.2491,-0.2483,-0.2471,-0.2421,-0.2444,-0.2439,-0.2432,-0.2376,-0.2366,-0.2362,-0.2345,-0.2332,-0.2331,-0.233,-0.2329,-0.234,-0.2341,0,0,0,0,0,0,-0.2593,-0.258,-0.2524,-0.2519,-0.254,-0.2491,-0.2481,-0.2471,-0.2421,-0.2412,-0.2433,-0.2429,-0.2369,-0.2364,-0.2359,-0.2373,-0.2331,-0.2329,-0.2328,-0.2339,-0.234,-0.2342,0,0,0,0,0,0,-0.2595,-0.2588,-0.2526,-0.2548,-0.2539,-0.2491,-0.2479,-0.247,-0.246,-0.2412,-0.2403,-0.2431,-0.2368,-0.2361,-0.2355,-0.237,-0.2328,-0.2327,-0.2337,-0.2339,-0.2341,-0.2402,0,0,0,0,0,0,-0.2597,-0.2589,-0.2594,-0.2549,-0.2538,-0.2523,-0.248,-0.247,-0.2457,-0.2451,-0.2408,-0.24,-0.2366,-0.2358,-0.2353,-0.2367,-0.2326,-0.2336,-0.2338,-0.2341,-0.2398,-0.2405,-0.2412,0,0,0,0,0,-0.26,-0.2614,-0.2595,-0.2588,-0.2543,-0.2524,-0.2518,-0.2479,-0.2459,-0.2463,-0.2433,-0.2401,-0.2369,-0.2357,-0.2352,-0.2365,-0.2335,-0.2338,-0.234,-0.2395,-0.2404,-0.2411,0,0,0,0,0,0,-0.2662,-0.2607,-0.2585,-0.2585,-0.256,-0.2513,-0.2517,-0.2489,-0.2469,-0.2465,-0.2417,-0.2408,-0.2407,-0.2386,-0.2373,-0.2377,-0.2348,-0.235,-0.2391,-0.2399,-0.2406,-0.241,-0.2324,0,0,0,0,0,-0.2676,-0.2664,-0.2617,-0.2622,-0.261,-0.2566,-0.2557,-0.2529,-0.2501,-0.2489,-0.2459,-0.2433,-0.2417,-0.2407,-0.239,-0.2395,-0.2385,-0.2402,-0.2409,-0.2414,-0.2416,-0.2418,-0.2425,-0.2351,-0.2351,-0.2351,0,0,-0.2704,-0.2672,-0.2668,-0.2633,-0.261,-0.26,-0.2558,-0.2548,-0.254,-0.2488,-0.248,-0.2457,-0.2425,-0.2424,-0.2423,-0.2406,-0.2435,-0.2418,-0.2423,-0.2421,-0.2421,-0.2428,-0.2435,-0.2353,-0.2353,-0.2352,0,0,-0.2749,-0.2725,-0.2725,-0.2703,-0.267,-0.2641,-0.2641,-0.2599,-0.2581,-0.2573,-0.2533,-0.2524,-0.2497,-0.2476,-0.2462,-0.2501,-0.2471,-0.2497,-0.2532,-0.2534,-0.254,-0.2544,-0.2558,-0.2564,-0.2499,-0.2499,-0.2499,0,-0.2788,-0.277,-0.2729,-0.2722,-0.2708,-0.2661,-0.2662,-0.2643,-0.2605,-0.2597,-0.258,-0.2546,-0.2521,-0.2515,-0.2525,-0.2515,-0.2514,-0.2501,-0.2542,-0.2547,-0.2551,-0.2563,-0.2568,-0.2503,-0.2502,-0.2502,-0.2502,0,-0.282,-0.2808,-0.2813,-0.2778,-0.2765,-0.2762,-0.2721,-0.2712,-0.2687,-0.266,-0.2652,-0.2621,-0.2596,-0.2593,-0.2568,-0.2584,-0.2575,-0.2551,-0.252,-0.2561,-0.2572,-0.2577,-0.2507,-0.2506,-0.2505,-0.2504,0,0,-0.29,-0.2843,-0.2846,-0.2829,-0.2789,-0.278,-0.2776,-0.2752,-0.2745,-0.2722,-0.2717,-0.2696,-0.2674,-0.2658,-0.263,-0.2632,-0.2665,-0.2607,-0.2606,-0.2618,-0.2681,-0.2699,-0.2705,-0.2646,-0.2647,-0.2647,-0.2684,0,-0.2938,-0.2926,-0.289,-0.2889,-0.2878,-0.2834,-0.2831,-0.2806,-0.2781,-0.2769,-0.2742,-0.2728,-0.2699,-0.269,-0.269,-0.2661,-0.2677,-0.2658,-0.264,-0.264,-0.2648,-0.2711,-0.2729,-0.2764,-0.2688,-0.2688,-0.2689,0,-0.2979,-0.2959,-0.2957,-0.2918,-0.2912,-0.2909,-0.2885,-0.2874,-0.2846,-0.2828,-0.2811,-0.278,-0.2773,-0.2746,-0.2736,-0.2724,-0.2715,-0.27,-0.2701,-0.2696,-0.2666,-0.2707,-0.2775,-0.278,-0.2695,-0.2695,-0.2694,0,-0.3037,-0.3009,-0.3004,-0.2992,-0.2947,-0.2946,-0.2927,-0.2897,-0.2886,-0.2865,-0.2857,-0.2836,-0.2825,-0.281,-0.2774,-0.2757,-0.2768,-0.2738,-0.2753,-0.2754,-0.2756,-0.2756,-0.2822,-0.2753,-0.2752,-0.2752,-0.2752,0,-0.3082,-0.3083,-0.303,-0.3027,-0.3027,-0.2986,-0.2987,-0.2964,-0.2938,-0.293,-0.2892,-0.2886,-0.284,-0.2828,-0.2801,-0.2797,-0.2792,-0.2778,-0.277,-0.278,-0.2782,-0.2773,-0.2769,-0.2754,-0.2753,-0.2753,-0.2753,0,-0.3146,-0.311,-0.3102,-0.3061,-0.305,-0.3052,-0.3016,-0.3012,-0.2986,-0.2977,-0.2972,-0.2931,-0.2916,-0.288,-0.2855,-0.2836,-0.2839,-0.2826,-0.2849,-0.2844,-0.2861,-0.2859,-0.2922,-0.2928,-0.2856,-0.2857,-0.2858,0,-0.3176,-0.3176,-0.3134,-0.3126,-0.3109,-0.3096,-0.3085,-0.3045,-0.3034,-0.3003,-0.3003,-0.2985,-0.2968,-0.2946,-0.2914,-0.2895,-0.288,-0.2904,-0.2877,-0.2888,-0.288,-0.288,-0.2879,-0.2909,-0.291,-0.2911,-0.2912,0,-0.3234,-0.3216,-0.32,-0.3179,-0.3166,-0.3147,-0.3127,-0.3122,-0.3078,-0.3068,-0.3052,-0.3039,-0.3014,-0.2997,-0.2973,-0.2954,-0.2926,-0.2921,-0.2923,-0.2933,-0.2945,-0.2938,-0.2864,-0.2919,-0.2918,-0.2918,-0.2917,-0.2917,-0.3281,-0.3278,-0.3249,-0.3233,-0.3213,-0.3195,-0.3189,-0.3162,-0.3148,-0.3125,-0.3103,-0.3089,-0.3062,-0.3027,-0.3011,-0.3,-0.2985,-0.2989,-0.2989,-0.299,-0.2995,-0.2949,-0.2995,-0.2995,-0.2995,-0.2995,-0.2994,0,-0.3335,-0.3314,-0.33,-0.3272,-0.326,-0.3235,-0.3211,-0.3203,-0.3191,-0.3168,-0.3153,-0.3135,-0.3118,-0.3086,-0.3066,-0.3064,-0.305,-0.306,-0.3059,-0.3055,-0.3009,-0.3009,-0.3071,-0.3071,-0.3071,-0.3071,-0.3071,-0.3071,-0.3362,-0.3356,-0.3336,-0.3321,-0.33,-0.3286,-0.3275,-0.3258,-0.324,-0.3221,-0.3207,-0.3186,-0.316,-0.3138,-0.3122,-0.3113,-0.3108,-0.3121,-0.3108,-0.3066,-0.3058,-0.3051,-0.3051,-0.3121,-0.3121,-0.3155,-0.3155,-0.3155]},{"header":{"parameterUnit":"m.s-1","parameterCategory":1,"la1":30.2991,"la2":30.254,"lo1":-89.0895,"lo2":-89.0444,"dy":0.0017,"dx":0.0017,"nx":28,"ny":28,"refTime":"2025-08-27T21:00:00:Z","depth":0,"parameterNumber":3,"parameterNumberName":"V-component_of_WINDS"},"data":[0,0,0,0,0,0,0,0,0,0,0,0,0,0,0,0,0,0,0,0,0,0,0,0,0,0,0,0,0,0,0,0,0,0,0,0,0,0,0,0,0,0,0,0,0,0,0,0,0,0,0,0,0,0,0,0,0,0,1.9235,1.9236,0,1.9319,1.932,1.9321,1.9416,1.9418,1.9419,1.9421,1.9501,1.9502,1.9503,0,0,0,0,0,0,0,0,0,0,0,0,0,1.915,1.9151,1.9235,1.9236,1.9237,1.9319,1.932,1.9321,1.9416,1.9418,1.942,1.9421,1.9501,1.9502,1.9503,0,0,0,0,0,0,0,0,0,0,0,0,0,1.9205,1.9151,1.9234,1.9294,1.93,1.9319,1.932,1.9322,1.9416,1.9418,1.942,1.9422,1.95,1.9502,1.9503,1.9468,0,0,1.9507,1.9507,0,0,0,0,0,0,0,0,1.9202,1.9208,1.9284,1.929,1.9297,1.936,1.932,1.937,1.9415,1.9372,1.9421,1.9423,1.9452,1.9457,1.9468,1.9471,1.9475,1.9507,1.9507,1.9508,1.9508,0,0,0,0,0,0,0,1.9198,1.9205,1.9268,1.9285,1.9293,1.9315,1.9325,1.933,1.9399,1.9376,1.9383,1.9392,1.9456,1.9467,1.9471,1.9476,1.9507,1.9508,1.9509,1.9509,1.9453,1.9451,0,0,0,0,0,0,1.9186,1.9201,1.9265,1.9271,1.9254,1.9315,1.9326,1.9337,1.9399,1.941,1.939,1.9396,1.9464,1.9469,1.9474,1.9436,1.9508,1.9509,1.951,1.9455,1.9453,1.945,0,0,0,0,0,0,1.9184,1.9191,1.9262,1.9238,1.9249,1.9314,1.9326,1.9338,1.9349,1.941,1.9422,1.9389,1.9466,1.9472,1.9469,1.944,1.951,1.9511,1.9458,1.9455,1.9452,1.936,0,0,0,0,0,0,1.9181,1.9189,1.9178,1.9237,1.925,1.9257,1.9324,1.9338,1.9352,1.936,1.9412,1.9423,1.9468,1.9466,1.947,1.9443,1.9512,1.9461,1.9456,1.9453,1.9366,1.9354,1.9344,0,0,0,0,0,1.9178,1.9148,1.9177,1.9184,1.9237,1.9255,1.9262,1.9316,1.9349,1.9337,1.9376,1.9421,1.9443,1.9465,1.947,1.9443,1.9463,1.9458,1.9453,1.9371,1.9356,1.9344,0,0,0,0,0,0,1.9082,1.9157,1.919,1.9179,1.921,1.9271,1.9258,1.9299,1.932,1.9327,1.9392,1.9403,1.9391,1.9417,1.944,1.9412,1.9459,1.9455,1.9395,1.9382,1.9371,1.9364,1.9513,0,0,0,0,0,1.906,1.907,1.9134,1.9118,1.9132,1.9192,1.9202,1.9241,1.9275,1.9288,1.9327,1.9356,1.937,1.9378,1.9394,1.937,1.9382,1.9354,1.9343,1.9334,1.9329,1.9317,1.9305,1.9434,1.9434,1.9434,0,0,1.9013,1.9056,1.9058,1.91,1.9129,1.9136,1.9202,1.9207,1.9212,1.9288,1.9288,1.9317,1.9354,1.934,1.9336,1.9361,1.9296,1.9327,1.9319,1.932,1.9311,1.9298,1.9288,1.9431,1.9431,1.9432,0,0,1.8933,1.8967,1.8957,1.8984,1.9028,1.9068,1.9065,1.912,1.9143,1.9144,1.9201,1.9207,1.9229,1.9254,1.9269,1.9197,1.9238,1.92,1.9142,1.913,1.9119,1.9111,1.9084,1.9074,1.9195,1.9195,1.9195,0,1.8869,1.8885,1.8946,1.8947,1.8963,1.9034,1.9023,1.9047,1.9092,1.91,1.9129,1.9158,1.9188,1.918,1.9163,1.9173,1.9171,1.9194,1.9116,1.9108,1.9101,1.9076,1.9066,1.919,1.919,1.9191,1.9191,0,1.8804,1.8813,1.8799,1.8843,1.8858,1.8853,1.8911,1.8918,1.8956,1.8992,1.8991,1.903,1.9055,1.9056,1.9092,1.9053,1.9067,1.9105,1.9154,1.9083,1.906,1.9051,1.9183,1.9184,1.9186,1.9187,0,0,1.8665,1.8743,1.8737,1.8757,1.881,1.8818,1.8815,1.8841,1.8845,1.8874,1.8872,1.889,1.8925,1.8942,1.8982,1.8971,1.891,1.901,1.9012,1.8989,1.8868,1.8838,1.8826,1.8939,1.8937,1.8936,1.8864,0,1.8593,1.8595,1.865,1.8635,1.8644,1.8711,1.8709,1.874,1.8773,1.8784,1.8821,1.8832,1.8878,1.8889,1.8882,1.8919,1.8886,1.8925,1.8935,1.8935,1.8923,1.8815,1.8784,1.8714,1.8856,1.8854,1.8853,0,1.8509,1.8535,1.8522,1.8575,1.858,1.8578,1.8605,1.8615,1.8651,1.8676,1.8695,1.8741,1.874,1.8787,1.8786,1.8811,1.8818,1.8837,1.8836,1.8838,1.8889,1.8813,1.8694,1.8683,1.884,1.8841,1.8842,0,1.8408,1.8439,1.8435,1.8451,1.8513,1.8509,1.8534,1.8572,1.8584,1.8608,1.8616,1.8638,1.865,1.8665,1.8715,1.8745,1.8707,1.8759,1.8727,1.8725,1.8715,1.8715,1.8594,1.8721,1.8721,1.8721,1.8722,0,1.8321,1.831,1.839,1.8388,1.8377,1.8439,1.8426,1.8457,1.8491,1.8494,1.8553,1.8555,1.8621,1.8629,1.8667,1.866,1.8665,1.8684,1.8694,1.8678,1.8675,1.8683,1.8688,1.8719,1.8719,1.872,1.872,0,1.8206,1.8259,1.8259,1.8318,1.8333,1.8322,1.8372,1.8371,1.8408,1.8412,1.8416,1.8474,1.8487,1.8538,1.8563,1.8589,1.8568,1.8588,1.8556,1.8562,1.8527,1.8529,1.8406,1.8393,1.8528,1.8527,1.8526,0,1.8147,1.814,1.8199,1.8206,1.8229,1.824,1.8253,1.8313,1.8324,1.8364,1.8357,1.8375,1.8393,1.841,1.8453,1.8472,1.8493,1.8448,1.8496,1.8479,1.8491,1.849,1.8489,1.8437,1.8436,1.8434,1.8433,0,1.8035,1.8062,1.808,1.8106,1.812,1.8143,1.8169,1.8171,1.8238,1.8246,1.8261,1.8275,1.83,1.8317,1.8343,1.8367,1.841,1.8418,1.8411,1.8394,1.8376,1.8384,1.8527,1.842,1.8421,1.8422,1.8423,1.8424,1.7946,1.7943,1.7984,1.8,1.8027,1.805,1.8052,1.809,1.8104,1.8131,1.8165,1.8175,1.821,1.825,1.8271,1.8278,1.8302,1.8293,1.829,1.8287,1.8278,1.8375,1.8283,1.8283,1.8284,1.8284,1.8284,0,1.7837,1.7867,1.7882,1.7917,1.793,1.7972,1.8003,1.801,1.8019,1.8049,1.8065,1.8081,1.8097,1.8142,1.8162,1.8159,1.8179,1.8162,1.8162,1.8167,1.8256,1.8259,1.8145,1.8145,1.8145,1.8146,1.8146,1.8146,1.7782,1.7779,1.781,1.782,1.7849,1.7861,1.7875,1.7896,1.792,1.7936,1.795,1.798,1.8015,1.8039,1.8054,1.8067,1.8071,1.8047,1.8066,1.8148,1.8161,1.8173,1.8177,1.8048,1.8047,1.7976,1.7975,1.7975]}]]